Regional Weather Roundup
Issued by NWS Cleveland, OH

Home | Current Version | Previous Version | Graphics & Text | Print | Product List | Glossary On
Versions: 1 2 3 4 5 6 7 8 9 10 11 12 13 14 15 16 17 18 19 20 21 22 23 24 25 26 27 28 29 30 31 32 33 34 35 36 37 38 39 40 41 42 43 44 45 46 47 48 49 50
263
ASUS41 KCLE 091900
RWRCLE
OHIO REGIONAL WEATHER ROUNDUP
NATIONAL WEATHER SERVICE WILMINGTON, OH
200 PM EST FRI DEC 09 2016

NOTE: "FAIR" INDICATES FEW OR NO CLOUDS BELOW 12,000 FEET WITH NO
SIGNIFICANT WEATHER AND/OR OBSTRUCTIONS TO VISIBILITY.

OHZ001>008-015>018-024>027-034-035-043-044-092000-
   NORTHWEST OHIO

CITY           SKY/WX    TMP DP  RH WIND       PRES   REMARKS
DEFIANCE       PTSUNNY   30  20  66 W9        30.43F WCI  22
FINDLAY        LGT SNOW  27  21  78 W15       30.42S WCI  15
TOLEDO EXPRESS LGT SNOW  28  26  92 W9        30.40F FOG     WCI  19
TOLEDO EXEC    LGT SNOW  30  26  85 W14       30.41S FOG     WCI  19
LIMA           LGT SNOW  25  22  88 W13       30.43F FOG     WCI  14
$$

OHZ009>014-019>023-028>033-038-089-092000-
   NORTHEAST OHIO

CITY           SKY/WX    TMP DP  RH WIND       PRES   REMARKS
CLE-HOPKINS    CLOUDY    31  19  61 W15       30.39F WCI  20
CLE-LAKEFRONT  CLOUDY    31  22  69 W23       30.35F WCI  18
CUY CO. ARPT   LGT SNOW  28  25  86 W16       30.35S WCI  17
LORAIN-ELYRIA  CLOUDY    28  20  71 W17       30.39S WCI  16
ASHTABULA      SNOW      27  25  92 W14       30.31S VSB 1/4 WCI  16
AKRON-CANTON   FLURRIES  26  18  71 W10       30.36S WCI  16
WOOSTER        NOT AVBL
MANSFIELD      LGT SNOW  24  20  84 SW10      30.38S FOG     WCI  14
YOUNGSTOWN     FLURRIES  28  19  69 W13       30.31S WCI  17
$$

OHZ042-051>053-060>062-070>072-077>081-092000-
  SOUTHWEST OHIO

CITY           SKY/WX    TMP DP  RH WIND       PRES   REMARKS
CINC-COVINGTON CLOUDY    24  13  62 W8        30.51F WCI  15
CINC-LUNKEN    CLOUDY    26  15  63 W10       30.55F WCI  16
HAMILTON       CLOUDY    28  16  60 W6        30.53F WCI  22
DAYTON         NOT AVBL
WRIGHT-PAT AFB NOT AVBL
DAYTON GENERAL CLOUDY    26  16  65 W10       30.48F WCI  16
WILMINGTON     CLOUDY    25  15  66 W13       30.47F WCI  14
$$

OHZ036-037-039>041-045>050-054>059-063>069-073>076-082>088-092000-
  CENTRAL AND SOUTHEAST OHIO

CITY           SKY/WX    TMP DP  RH WIND       PRES   REMARKS
COLUMBUS       FLURRIES  27  19  72 W13       30.45F WCI  16
OSU AIRPORT    LGT SNOW  26  20  77 W14       30.44F WCI  14
BOLTON FIELD   CLOUDY    28  18  64 W15G21    30.45F WCI  17
RICKENBACK AFB NOT AVBL
NEWARK         LGT SNOW  27  19  72 W9        30.43F WCI  18
MARION         LGT SNOW  25  20  81 W10       30.42F WCI  15
LANCASTER      CLOUDY    28  17  63 SW12      30.46S WCI  18
ZANESVILLE     CLOUDY    28  18  66 W12       30.43S WCI  18
NEW PHILLY     LGT SNOW  26  20  77 W10       30.41S WCI  16
$$




USA.gov is the U.S. government's official web portal to all federal, state and local government web resources and services.